Rotterdam, Netherlands

1:07 PM CEST on May 29, 2017 (GMT +0200)
Rotterdam

Weather History for EHRD - November, 2012

Change the Weather History Date:

Sunday, November 11, 2012

  Actual Average Record
Temperature  
Mean Temperature 46 °F -  
Max Temperature 51 °F 46 °F 57 °F (2005)
Min Temperature 42 °F 37 °F 26 °F (2016)
Degree Days  
Heating Degree Days 18    
Moisture  
Dew Point 45 °F    
Average Humidity 94    
Maximum Humidity 100    
Minimum Humidity 82    
Precipitation  
Precipitation 0.00 in - - ()
Sea Level Pressure  
Sea Level Pressure 29.82 in    
Wind  
Wind Speed 8 mph ()    
Max Wind Speed 12 mph    
Max Gust Speed -    
Visibility 6.0 miles    
Events Rain    
Averages and records for this station are not official NWS values.
T = Trace of Precipitation, MM = Missing Value Source: Averaged Metar Reports

Daily Weather History Graph

Daily Weather History Graph

Search for Another Location

Airport or City:

Trip Planner

Search our weather history database for the weather conditions in past years. The results will help you decide how hot, cold, wet, or windy it might be!

Date:

Astronomy

Nov. 11, 2012 Rise Set
Actual Time 7:55 AM CET 4:56 PM CET
Civil Twilight 7:18 AM CET 5:33 PM CET
Nautical Twilight 6:37 AM CET 6:14 PM CET
Astronomical Twilight 5:58 AM CET 6:53 PM CET
Moon 4:33 AM CET (11/11) 3:24 PM CET (11/11)
Length of Visible Light 10h 14m
Length of Day
9h 01m
Waning Crescent, 9% of the Moon is Illuminated
Nov 11
Waning Crescent
Nov 13
New
Nov 20
First Quarter
Nov 28
Full
Dec 6
Last Quarter

Hourly Weather History & Observations

Time (CET) Temp. Windchill Dew Point Humidity Pressure Visibility Wind Dir Wind Speed Gust Speed Precip Events Conditions
12:25 AM 48.2 °F - 46.4 °F 93% 29.53 in 6.2 mi West 9.2 mph - N/A   Light Drizzle
12:55 AM 48.2 °F - 46.4 °F 93% 29.53 in 6.2 mi SW 5.8 mph - N/A   Mostly Cloudy
1:00 AM 48 °F - 47 °F 96% 29.56 in 22 mi SW 6.7 mph - - Rain Rain
1:25 AM 48.2 °F - 48.2 °F 100% 29.56 in 3.7 mi SW 8.1 mph - N/A Rain Rain
1:55 AM 48.2 °F - 48.2 °F 100% 29.56 in 6.2 mi WSW 11.5 mph - N/A   Heavy Drizzle
2:25 AM 48.2 °F - 48.2 °F 100% 29.56 in 6.2 mi SW 11.5 mph - N/A Rain Light Rain Showers
2:55 AM 48.2 °F - 46.4 °F 93% 29.59 in 6.2 mi SW 9.2 mph - N/A Rain Light Rain
3:25 AM 48.2 °F - 46.4 °F 93% 29.59 in 6.2 mi SW 11.5 mph - N/A   Mostly Cloudy
3:55 AM 46.4 °F 41.9 °F 46.4 °F 100% 29.62 in 6.2 mi SW 9.2 mph - N/A   Partly Cloudy
4:00 AM 47 °F - 46 °F 94% 29.64 in 12 mi SW 8.9 mph - -   Partly Cloudy
4:25 AM 48.2 °F - 46.4 °F 93% 29.62 in 6.2 mi SSW 10.4 mph - N/A   Partly Cloudy
4:55 AM 46.4 °F 43.5 °F 46.4 °F 100% 29.65 in 6.2 mi SSW 5.8 mph - N/A   Overcast
5:25 AM 46.4 °F 42.9 °F 46.4 °F 100% 29.65 in 5.6 mi South 6.9 mph - N/A   Partly Cloudy
5:55 AM 46.4 °F 41.1 °F 46.4 °F 100% 29.68 in 3.1 mi SW 11.5 mph - N/A Rain Heavy Rain Showers
6:25 AM 46.4 °F 44.3 °F 46.4 °F 100% 29.68 in 6.2 mi South 4.6 mph - N/A   Overcast
6:55 AM 44.6 °F 40.7 °F 44.6 °F 100% 29.71 in 6.2 mi South 6.9 mph - N/A   Partly Cloudy
7:00 AM 44 °F - 44 °F 100% 29.72 in 7 mi SSW 6.7 mph - - Rain Rain
7:25 AM 44.6 °F 40.7 °F 44.6 °F 100% 29.71 in 5.0 mi Variable 6.9 mph - N/A   Unknown
7:55 AM 42.8 °F 38.6 °F 42.8 °F 100% 29.74 in 4.3 mi South 6.9 mph - N/A   Unknown
8:25 AM 42.8 °F 38.6 °F 42.8 °F 100% 29.74 in 4.3 mi SSW 6.9 mph - N/A   Unknown
8:55 AM 44.6 °F 43.1 °F 44.6 °F 100% 29.77 in 3.7 mi SSW 3.5 mph - N/A   Scattered Clouds
9:25 AM 44.6 °F 40.2 °F 44.6 °F 100% 29.77 in 5.0 mi South 8.1 mph - N/A   Mostly Cloudy
9:55 AM 46.4 °F 42.9 °F 44.6 °F 93% 29.80 in 4.3 mi South 6.9 mph - N/A   Unknown
10:00 AM 46 °F - 45 °F 96% 29.81 in 6 mi South 6.7 mph - -   Mist
10:25 AM 46.4 °F 42.4 °F 46.4 °F 100% 29.80 in 6.2 mi SSW 8.1 mph - N/A   Unknown
10:55 AM 48.2 °F - 46.4 °F 93% 29.80 in 6.2 mi SSW 8.1 mph - N/A   Unknown
11:25 AM 50.0 °F - 46.4 °F 87% 29.83 in 6.2 mi SSW 6.9 mph - N/A   Unknown
11:55 AM 50.0 °F - 46.4 °F 87% 29.83 in 6.2 mi SSW 8.1 mph - N/A   Unknown
12:25 PM 51.8 °F - 46.4 °F 82% 29.83 in 6.2 mi SSW 6.9 mph - N/A   Partly Cloudy
12:55 PM 51.8 °F - 46.4 °F 82% 29.83 in 6.2 mi South 10.4 mph - N/A   Overcast
1:00 PM 51 °F - 47 °F 82% 29.86 in 14 mi South 8.9 mph - -   Partly Cloudy
1:25 PM 51.8 °F - 48.2 °F 88% 29.83 in 6.2 mi South 9.2 mph - N/A   Mostly Cloudy
1:55 PM 50.0 °F - 46.4 °F 87% 29.86 in 6.2 mi SW 10.4 mph - N/A   Mostly Cloudy
2:25 PM 50.0 °F - 46.4 °F 87% 29.86 in 6.2 mi SW 10.4 mph - N/A   Mostly Cloudy
2:55 PM 50.0 °F - 48.2 °F 94% 29.89 in 6.2 mi SSW 9.2 mph - N/A   Mostly Cloudy
3:25 PM 48.2 °F - 46.4 °F 93% 29.89 in 6.2 mi SW 10.4 mph - N/A   Partly Cloudy
3:55 PM 50.0 °F - 46.4 °F 87% 29.92 in 5.6 mi SW 6.9 mph - N/A   Mostly Cloudy
4:00 PM 48 °F - 46 °F 91% 29.93 in 6 mi SW 8.9 mph - -   Mist
4:25 PM 48.2 °F - 46.4 °F 93% 29.92 in 5.0 mi SW 6.9 mph - N/A   Mostly Cloudy
4:55 PM 48.2 °F - 46.4 °F 93% 29.95 in 6.2 mi WSW 8.1 mph - N/A   Mostly Cloudy
5:25 PM 46.4 °F 42.4 °F 44.6 °F 93% 29.95 in 6.2 mi SW 8.1 mph - N/A   Partly Cloudy
5:55 PM 46.4 °F 42.4 °F 42.8 °F 87% 29.98 in 6.2 mi WSW 8.1 mph - N/A   Unknown
6:25 PM 44.6 °F 40.2 °F 42.8 °F 93% 29.98 in 6.2 mi SW 8.1 mph - N/A   Partly Cloudy
6:55 PM 44.6 °F 40.7 °F 42.8 °F 93% 29.98 in 6.2 mi SW 6.9 mph - N/A   Mostly Cloudy
7:00 PM 46 °F - 44 °F 88% 30.00 in 19 mi SW 8.9 mph - -   Partly Cloudy
7:25 PM 46.4 °F 41.9 °F 42.8 °F 87% 30.01 in 6.2 mi SSW 9.2 mph - N/A   Partly Cloudy
7:55 PM 46.4 °F 41.1 °F 46.4 °F 100% 30.01 in - SSW 11.5 mph - N/A   Overcast
8:25 PM 46.4 °F 41.1 °F 44.6 °F 93% 30.04 in 2.8 mi SSW 11.5 mph - N/A   Overcast
8:55 PM 46.4 °F 41.5 °F 44.6 °F 93% 30.04 in - SSW 10.4 mph - N/A   Overcast
9:25 PM 46.4 °F 41.5 °F 44.6 °F 93% 30.04 in 2.8 mi SW 10.4 mph - N/A   Mostly Cloudy
9:55 PM 44.6 °F 38.8 °F 44.6 °F 100% 30.06 in 3.1 mi SW 11.5 mph - N/A   Mostly Cloudy
10:00 PM 45 °F - 44 °F 95% 30.07 in 3 mi SW 11.2 mph - -   Mist
10:25 PM 44.6 °F 38.8 °F 44.6 °F 100% 30.06 in 3.1 mi SW 11.5 mph - N/A   Overcast
10:55 PM 44.6 °F 39.7 °F 42.8 °F 93% 30.06 in - SSW 9.2 mph - N/A   Mostly Cloudy
11:25 PM 44.6 °F 40.2 °F 42.8 °F 93% 30.06 in - SSW 8.1 mph - N/A   Mist
11:55 PM 42.8 °F 38.0 °F 42.8 °F 100% 30.06 in - SSW 8.1 mph - N/A   Partly Cloudy